GW7381 Weather Reports


time (UTC)temp
F
wind
direction
speed
knots
gust
knots
rain 1hr
in
rain 24hr
in
rain mn
in
humidity
%
barometer
mb
20260505152017 36 0 0.0 3.5 0.01 0.30 0.16 91 1016.0
20260505151535 36 259 0.9 3.5 0.01 0.30 0.16 91 1016.0
20260505151018 36 263 0.9 3.5 0.01 0.30 0.16 91 1015.9
20260505150518 36 0 0.9 3.5 0.01 0.30 0.16 91 1015.9
20260505140521 35 215 0.9 3.5 0.03 0.29 0.15 90 1016.2
20260505125021 36 240 2.6 7.0 0.02 0.26 0.12 90 1015.2
20260505124546 36 294 1.7 6.1 0.02 0.26 0.12 90 1015.1
20260505124021 36 0 1.7 7.0 0.03 0.26 0.12 89 1015.1
20260505123518 36 255 1.7 7.0 0.03 0.26 0.12 89 1015.0
20260505123038 36 271 0.9 6.1 0.04 0.26 0.12 89 1015.0
20260505122518 36 215 0.9 7.0 0.04 0.25 0.11 89 1015.0
20260505122020 36 269 2.6 7.0 0.05 0.25 0.11 89 1015.0
20260505121536 36 211 2.6 6.1 0.06 0.25 0.11 89 1014.9
20260505121019 36 164 2.6 6.1 0.06 0.25 0.11 89 1015.0
20260505120517 37 0 1.7 6.1 0.06 0.25 0.11 89 1014.9
20260505120047 37 283 1.7 6.1 0.05 0.24 0.10 89 1014.8
20260505115516 37 252 0.9 6.1 0.06 0.24 0.10 89 1014.7
20260505115017 38 196 0.0 5.2 0.06 0.24 0.10 89 1014.7
20260505114534 38 128 1.7 5.2 0.07 0.24 0.10 89 1014.6
20260505114016 38 285 1.7 7.0 0.06 0.23 0.09 89 1014.6
20260505113519 38 318 1.7 7.8 0.06 0.23 0.09 89 1014.6
20260505113035 38 280 2.6 8.7 0.05 0.22 0.08 89 1014.6
20260505112518 38 302 2.6 8.7 0.04 0.21 0.07 89 1014.6
20260505112019 39 259 1.7 8.7 0.04 0.20 0.06 89 1014.4
20260505111535 39 282 1.7 7.0 0.03 0.19 0.05 89 1014.3
20260505111022 39 219 1.7 7.0 0.03 0.19 0.05 89 1014.1
20260505110517 39 224 1.7 6.1 0.03 0.19 0.05 89 1014.2
20260505102017 41 256 2.6 7.8 0.01 0.16 0.02 89 1013.2
20260505101536 41 273 2.6 8.7 0.01 0.16 0.02 89 1013.1
20260505101019 41 296 2.6 11.3 0.01 0.16 0.02 89 1013.1
20260505100519 41 258 3.5 11.3 0.01 0.16 0.02 89 1013.0
20260505100036 42 300 2.6 11.3 0.00 0.15 0.01 89 1012.9
20260505095518 42 284 2.6 9.6 0.00 0.15 0.01 90 1012.7
20260505095018 42 321 2.6 9.6 0.00 0.15 0.01 89 1012.6
20260505094535 42 180 2.6 9.6 0.00 0.15 0.01 89 1012.6
20260505094017 42 221 3.5 9.6 0.01 0.15 0.01 89 1012.6
20260505093518 42 213 3.5 9.6 0.01 0.15 0.01 89 1012.5
20260505093034 42 232 2.6 9.6 0.01 0.15 0.01 89 1012.6
20260505092522 42 221 2.6 9.6 0.01 0.15 0.01 89 1012.6
20260505092018 43 290 2.6 7.8 0.01 0.15 0.01 89 1012.6
20260505091531 43 259 3.5 9.6 0.01 0.15 0.01 88 1012.5
20260505091018 43 227 4.3 9.6 0.01 0.15 0.01 88 1012.4
20260505090517 43 261 3.5 9.6 0.01 0.15 0.01 88 1012.5
20260505090037 43 211 1.7 8.7 0.01 0.15 0.01 88 1012.4
20260505085518 44 225 1.7 7.8 0.01 0.15 0.01 88 1012.3
20260505085017 44 0 2.6 7.8 0.01 0.15 0.01 88 1012.3
20260505084544 44 180 2.6 8.7 0.00 0.14 0.00 87 1012.3
20260505084017 45 236 3.5 8.7 0.00 0.14 0.00 87 1012.3
20260505083517 46 242 3.5 8.7 0.00 0.14 0.00 87 1012.4
20260505083044 48 220 0.9 5.2 0.00 0.14 0.00 89 1012.3
20260505082517 48 250 0.0 2.6 0.00 0.14 0.00 89 1012.5
20260505082018 48 265 0.9 3.5 0.00 0.14 0.00 89 1012.4
20260505081548 48 0 0.0 3.5 0.00 0.14 0.00 89 1012.4
20260505081019 48 0 0.0 1.7 0.00 0.14 0.00 89 1012.4
20260505080518 47 246 0.0 1.7 0.00 0.14 0.00 89 1012.6
20260505080034 47 0 0.0 0.0 0.00 0.14 0.00 88 1012.4
20260505075517 47 0 0.0 0.0 0.00 0.14 0.00 88 1012.2
20260505075017 47 0 0.0 0.0 0.00 0.14 0.00 88 1012.3
20260505074532 47 0 0.0 0.0 0.00 0.14 0.00 88 1012.2
20260505074017 47 0 0.0 0.9 0.00 0.14 0.00 88 1012.2
20260505073517 47 0 0.0 0.9 0.00 0.14 0.00 88 1012.3
20260505073036 47 0 0.0 0.9 0.00 0.14 0.00 88 1012.4
20260505072517 47 0 0.0 1.7 0.00 0.14 0.00 88 1012.3
20260505072021 47 0 0.0 1.7 0.00 0.14 0.00 88 1012.4
20260505071536 47 0 0.0 1.7 0.00 0.14 0.00 88 1012.4
20260505071018 47 0 0.0 1.7 0.00 0.14 0.00 88 1012.6
20260505070522 47 0 0.0 0.9 0.00 0.14 0.00 88 1012.6
20260505070043 47 0 0.0 0.9 0.00 0.14 0.00 88 1012.5
20260505065518 47 0 0.0 0.9 0.00 0.14 0.00 88 1012.5
20260505065018 47 0 0.0 1.7 0.00 0.14 0.00 88 1012.6
20260505064535 47 0 0.0 1.7 0.00 0.14 0.00 88 1012.5
20260505064018 47 0 0.0 1.7 0.00 0.14 0.00 88 1012.5
20260505063518 47 0 0.0 0.9 0.00 0.14 0.00 88 1012.6
20260505063034 47 0 0.0 0.9 0.00 0.14 0.00 87 1012.5
20260505062518 47 0 0.0 1.7 0.00 0.14 0.00 87 1012.6
20260505062036 47 0 0.0 1.7 0.00 0.14 0.00 87 1012.6
20260505061535 47 0 0.0 0.9 0.00 0.14 0.00 87 1012.6
20260505061019 47 0 0.0 1.7 0.00 0.14 0.00 87 1012.8
20260505060519 47 0 0.0 1.7 0.00 0.14 0.00 87 1012.8
20260505060038 47 0 0.0 1.7 0.00 0.14 0.00 87 1012.6
20260505055519 47 0 0.0 1.7 0.00 0.14 0.14 87 1012.7
20260505055016 47 0 0.0 1.7 0.00 0.14 0.14 87 1012.9
20260505054536 47 155 0.0 1.7 0.01 0.14 0.14 87 1012.9
20260505054019 47 0 0.0 1.7 0.01 0.14 0.14 86 1012.8
20260505053518 47 0 0.0 1.7 0.01 0.14 0.14 86 1012.5
20260505053059 47 0 0.0 1.7 0.01 0.14 0.14 86 1012.6
20260505052517 47 0 0.0 1.7 0.01 0.14 0.14 86 1012.5
20260505052018 47 173 0.0 0.9 0.01 0.14 0.14 86 1012.5
20260505051534 47 0 0.0 1.7 0.01 0.14 0.14 86 1012.6
20260505051019 47 0 0.0 1.7 0.02 0.14 0.14 86 1012.9
20260505050517 47 0 0.0 0.9 0.03 0.14 0.14 86 1013.0
20260505041540 47 203 0.9 4.3 0.11 0.13 0.13 84 1013.2
20260505041017 47 163 0.9 4.3 0.11 0.12 0.12 83 1013.2
20260505040517 48 211 0.0 3.5 0.11 0.11 0.11 83 1013.2
20260505040038 48 211 0.9 6.1 0.10 0.10 0.10 82 1013.2
20260505035517 48 0 1.7 6.1 0.09 0.09 0.09 82 1013.0
20260505035018 48 188 2.6 6.1 0.09 0.09 0.09 81 1013.1
20260505034534 48 201 1.7 5.2 0.08 0.08 0.08 81 1013.1
20260505034018 49 201 1.7 7.8 0.08 0.08 0.08 80 1013.1
20260505033523 49 183 2.6 7.8 0.07 0.07 0.07 79 1013.2
20260505033042 50 215 0.9 7.8 0.06 0.06 0.06 78 1013.3
20260505032518 50 218 1.7 5.2 0.05 0.05 0.05 76 1013.2
20260505032016 50 223 1.7 5.2 0.04 0.04 0.04 73 1013.2
20260505031535 51 227 1.7 5.2 0.02 0.02 0.02 70 1013.0
20260505031019 52 201 1.7 6.1 0.00 0.00 0.00 67 1012.9
20260505030518 52 196 2.6 6.1 0.00 0.00 0.00 65 1012.8
20260505030035 52 200 1.7 6.1 0.00 0.00 0.00 65 1012.5
20260505025520 52 0 0.9 3.5 0.00 0.00 0.00 64 1012.3
20260505025018 53 265 0.0 2.6 0.00 0.00 0.00 64 1012.0
20260505024533 53 0 0.9 3.5 0.00 0.00 0.00 64 1011.8
20260505024021 53 0 0.9 3.5 0.00 0.00 0.00 63 1011.8
20260505023517 53 0 0.9 6.1 0.00 0.00 0.00 63 1011.6
20260505023031 54 221 0.9 6.1 0.00 0.00 0.00 62 1011.6
20260505022517 54 183 1.7 6.1 0.00 0.00 0.00 61 1011.5
20260505022016 55 263 1.7 6.1 0.00 0.00 0.00 59 1011.3
20260505021536 55 248 1.7 7.0 0.00 0.00 0.00 58 1011.4
20260505021018 56 282 2.6 7.0 0.00 0.00 0.00 55 1011.4
20260505020517 56 199 0.9 7.0 0.00 0.00 0.00 52 1011.4
20260505020036 56 0 0.0 2.6 0.00 0.00 0.00 52 1011.4
20260505015518 56 0 0.0 2.6 0.00 0.00 0.00 51 1011.4
20260505015018 56 0 0.0 2.6 0.00 0.00 0.00 51 1011.5
20260505014536 56 266 0.0 2.6 0.00 0.00 0.00 50 1011.3
20260505014017 56 258 0.0 2.6 0.00 0.00 0.00 50 1011.2
20260505013518 56 0 0.0 0.9 0.00 0.00 0.00 52 1010.9
20260505013032 57 0 0.0 0.9 0.00 0.00 0.00 52 1011.0
20260505012517 57 0 0.0 0.9 0.00 0.00 0.00 52 1011.2
20260505012018 57 0 0.0 1.7 0.00 0.00 0.00 51 1011.2
20260505011553 57 0 0.0 1.7 0.00 0.00 0.00 51 1010.9
20260505011019 57 0 0.0 1.7 0.00 0.00 0.00 50 1011.0
20260505010521 58 0 0.0 1.7 0.00 0.00 0.00 51 1011.1
20260505010033 58 0 0.0 0.9 0.00 0.00 0.00 50 1011.0
20260505005520 58 0 0.0 3.5 0.00 0.00 0.00 50 1011.0
20260505005017 58 0 0.0 3.5 0.00 0.00 0.00 50 1011.1
20260505004536 58 81 1.7 7.8 0.00 0.00 0.00 49 1011.0
20260505004017 59 30 0.9 8.7 0.00 0.00 0.00 48 1011.3
20260505003518 59 141 1.7 8.7 0.00 0.00 0.00 44 1011.3
20260505003034 60 171 0.9 6.1 0.00 0.00 0.00 40 1011.2
20260505002518 60 202 1.7 5.2 0.00 0.00 0.00 40 1011.1
20260505002019 60 0 0.9 3.5 0.00 0.00 0.00 40 1011.1
20260505001532 60 265 0.9 4.3 0.00 0.00 0.00 39 1010.9
20260505001017 60 227 0.9 5.2 0.00 0.00 0.00 39 1010.9
20260505000519 60 265 2.6 5.2 0.00 0.00 0.00 38 1010.7
20260505000110 61 189 0.9 6.1 0.00 0.00 0.00 38 1010.5
20260504235518 61 232 0.0 6.1 0.00 0.00 0.00 38 1010.4
20260504235018 61 173 2.6 6.1 0.00 0.00 0.00 38 1010.3
20260504234533 62 230 1.7 5.2 0.00 0.00 0.00 37 1010.0
20260504234017 62 215 1.7 9.6 0.00 0.00 0.00 36 1010.0
20260504233521 62 235 1.7 9.6 0.00 0.00 0.00 35 1009.9
20260504233045 62 259 2.6 7.8 0.00 0.00 0.00 34 1010.0
20260504232518 63 0 1.7 7.0 0.00 0.00 0.00 34 1009.9
20260504232017 63 246 2.6 9.6 0.00 0.00 0.00 34 1009.7
20260504231536 63 299 2.6 9.6 0.00 0.00 0.00 34 1009.8
20260504231018 63 222 2.6 12.2 0.00 0.00 0.00 33 1009.8
20260504230519 63 313 3.5 12.2 0.00 0.00 0.00 33 1009.7
20260504230035 63 286 2.6 8.7 0.00 0.00 0.00 34 1009.7
20260504225519 64 238 2.6 9.6 0.00 0.00 0.00 34 1009.7
20260504225019 63 264 2.6 9.6 0.00 0.00 0.00 34 1009.6
20260504224538 63 194 3.5 9.6 0.00 0.00 0.00 34 1009.7
20260504224018 63 200 2.6 9.6 0.00 0.00 0.00 34 1009.8
20260504223518 63 250 3.5 9.6 0.00 0.00 0.00 33 1009.8
20260504223034 63 232 2.6 7.8 0.00 0.00 0.00 33 1009.7
20260504222518 63 207 2.6 7.0 0.00 0.00 0.00 33 1009.6
20260504222021 63 234 1.7 8.7 0.00 0.00 0.00 31 1009.7
20260504221532 63 273 1.7 8.7 0.00 0.00 0.00 30 1009.6
20260504221018 64 243 3.5 8.7 0.00 0.00 0.00 30 1009.5
20260504220518 64 241 3.5 9.6 0.00 0.00 0.00 30 1009.4